This is the latest recevied weather packets stored in our database for station/object K7SKM. If no packets are shown the sender has not sent any weather packets the latest 10 day(s).
| Time | Temp. | Humidity | Pressure | Rain* | Wind** | Luminosity | Snow |
|---|---|---|---|---|---|---|---|
| 1777561114 | 10° C | 85% | 1025.9 hPa | 0 mm | - | 58 W/m² | - |
| 1777560810 | 10° C | 84% | 1026.1 hPa | 0 mm | - | 53 W/m² | - |
| 1777560508 | 10° C | 85% | 1026.2 hPa | 0 mm | - | 57 W/m² | - |
| 1777560205 | 9.44° C | 85% | 1026.2 hPa | 0 mm | - | 60 W/m² | - |
| 1777559902 | 9.44° C | 86% | 1026 hPa | 0 mm | - | 121 W/m² | - |
| 1777559597 | 9.44° C | 86% | 1026 hPa | 0 mm | - | 127 W/m² | - |
| 1777559295 | 8.89° C | 88% | 1026 hPa | 0 mm | - | 126 W/m² | - |
| 1777558991 | 8.33° C | 89% | 1025.9 hPa | 0 mm | - | 118 W/m² | - |
| 1777558687 | 7.78° C | 91% | 1026 hPa | 0 mm | - | 106 W/m² | - |
| 1777558383 | 7.78° C | 91% | 1026 hPa | 0 mm | - | 93 W/m² | - |
| 1777558079 | 7.78° C | 92% | 1026 hPa | 0 mm | - | 59 W/m² | - |
| 1777557775 | 7.22° C | 93% | 1025.8 hPa | 0 mm | - | 59 W/m² | - |
| 1777557472 | 7.22° C | 95% | 1026 hPa | 0 mm | - | 72 W/m² | - |
| 1777557168 | 7.22° C | 96% | 1025.9 hPa | 0 mm | - | 61 W/m² | - |
| 1777556864 | 7.22° C | 96% | 1025.8 hPa | 0 mm | - | 32 W/m² | - |
| 1777556561 | 7.22° C | 96% | 1025.8 hPa | 0 mm | - | 47 W/m² | - |
| 1777556260 | 6.67° C | 96% | 1025.9 hPa | 0 mm | - | 29 W/m² | - |
| 1777555956 | 6.67° C | 96% | 1025.9 hPa | 0 mm | - | 18 W/m² | - |
| 1777555652 | 6.67° C | 96% | 1025.9 hPa | 0 mm | - | 13 W/m² | - |
| 1777555349 | 6.67° C | 96% | 1025.8 hPa | 0 mm | - | 10 W/m² | - |
| 1777555045 | 6.67° C | 96% | 1026 hPa | 0 mm | - | 7 W/m² | - |
| 1777554742 | 6.67° C | 96% | 1025.9 hPa | 0 mm | - | 5 W/m² | - |
| 1777554439 | 6.67° C | 96% | 1025.7 hPa | 0 mm | - | 2 W/m² | - |
| 1777554136 | 6.67° C | 96% | 1026 hPa | 0 mm | - | 1 W/m² | - |
| 1777553833 | 6.67° C | 96% | 1025.9 hPa | 0 mm | - | 0 W/m² | - |
* Rain latest hour (hover to see other rain measurements)
** Current wind speed in m/s (hover to see current wind gust speed)